Location: Unspecified
(54.1780°N, 0.0000°E)
Time: 06:48:17
(UTC+00:00)

Tiros 1 - Pass Details

Date: 25 June 2019
Orbit: 630 x 664 km, 48.4° (Epoch: 13 October)

Event Time Altitude Azimuth Distance (km) Brightness Sun altitude
Rises 23:24:43 0° 238° (WSW) 2,952 10.3 -12.0°
Reaches altitude 10° 23:27:12 10° 230° (SW) 2,037 9.4 -12.1°
Maximum altitude 23:31:26 35° 165° (SSE) 1,044 7.7 -12.2°
Drops below altitude 10° 23:35:39 10° 101° (E) 2,022 9.5 -12.2°
Sets 23:38:06 0° 92° (E) 2,927 10.4 -12.3°
